Tracking 19817 objects as of 19-Aug-2019
HD Live streaming from Space Station
objects crossing your sky now

METEOR 2-17 DEB

Track METEOR 2-17 DEB now!
10-day predictions


NORAD ID: 35369
Int'l Code: 1988-005AD
Perigee: 921.3 km
Apogee: 940.8 km
Inclination: 82.5 °
Period: 103.5 minutes
Semi major axis: 7302 km
RCS: 0.003 m2 (small)
Launch date: January 30, 1988
Source: Commonwealth of Independent States (former USSR) (CIS)
Launch site: PLESETSK MISSILE AND SPACE COMPLEX (PKMTR)

Note: This is SATELLITE DEBRIS
aabbcc
Your satellite tracking list
Your tracking list is empty




NASA's NSSDC Master Catalog

Two Line Element Set (TLE):
1 35369U 88005AD  19230.48063953 +.00000722 +00000-0 +56058-3 0  9998
2 35369 082.5260 131.3760 0013306 255.9424 225.5135 13.91352351398316
Source of the keplerian elements: AFSPC